星链-34872 (STARLINK-34872)

导读 | 豆包AI

STARLINK-34872是美国SpaceX星链计划的卫星,于2025年8月22日发射升空。星链项目旨在构建全球卫星互联网星座,为全球多地提供高速低延迟宽带服务。该卫星延续星链设计标准,加入已规模部署的低轨卫星网络,进一步补充完善星链系统覆盖能力,推动全球卫星互联网络建设。

基本信息
目录编号:
65296
目录名称:
STARLINK-34872
国际标识:
2025-184Z
轨道中心:
EARTH
卫星名称:
星链-34872
卫星全名:
星链-34872 (STARLINK-34872)
卫星状态:
在轨 (已飞行250 天)
发射日期:
2025-08-22 UTC
国别 :
美国 (US)
星等 :
--
轨道信息
数据来源 国际轨道数据 AOE轨道数据
星历时间 2026-04-29T10:37:29+0800
7小时前
查看轨道信息
2026-04-22T19:00:00+0800
6天前
查看轨道信息
半长轴 6927.627km 6927.683km
偏心率 0.0001392 0.0002326
轨道倾角 97.558° 97.594°
近地点辐角 99.412° 88.433°
升交点赤经 172.272° 165.749°
平近点角 260.726° 243.572°
近地点 548.525km 547.934km
远地点 550.455km 551.158km
周期 95.639分钟 95.640分钟
每日圈数 15.056569 15.056387
详细信息
固有亮度:
5
最大亮度:
2.5
卫星平台:
Starlink V1.0
覆盖范围:
全球
运营商:
太空探索技术公司
运营商所在国:
美国
制造商(研发单位):
太空探索技术公司
制造商所在国:
美国
使用方式:
暂无
卫星简介
Starlink 计划是 SpaceX 推出的全球卫星互联网项目,通过发射低轨道卫星,为全球尤其是偏远地区提供高速、低延迟的互联网服务。自 2019 年起,Starlink 已部署数千颗卫星,旨在缩小全球数字鸿沟,推动互联网普及。该项目还为军事、航空等行业提供通信支持,带来广泛经济效益。
2D轨道图
3D轨道图
轨道高度分析图
轨道倾角分析图
轨道综合分析图
查看轨道综合分析图